Wetbulb
56.23 56.21 56.06 56.24 56.39 55.98 55.94 55.98 56.02 56.07 56.18 56.44 56.51 56.48 56.65 57.22 56.80 52.06 48.46 54.07 56.36 65.00 67.03 63.57 63.55 61.41 60.24 57.46 58.43 56.82 46.95 45.12 46.69 47.70 50.45 53.22 49.02 53.87 56.10 54.19 54.94 54.85 55.35 57.63 58.26
56.02 56.25 56.21 56.17 56.62 56.34 55.55 55.47 55.59 55.74 56.06 56.19 56.27 56.24 56.31 57.15 52.64 49.23 56.11 63.07 64.50 66.97 58.85 58.82 58.70 59.05 54.25 55.13 55.77 52.45 46.09 49.41 53.83 53.03 51.23 52.91 50.74 51.17 52.10 52.33 54.06 54.70 57.38 58.31 57.71
54.81 55.09 55.65 56.32 56.35 56.05 56.04 55.47 55.38 55.38 55.36 55.51 55.47 55.79 56.43 55.86 48.57 48.33 64.46 63.08 63.31 66.49 57.19 56.75 59.56 57.59 52.73 53.78 54.33 51.96 48.98 53.87 54.01 54.56 55.10 54.31 53.43 52.99 51.38 49.41 52.26 52.64 55.03 55.78 55.51
54.25 54.34 54.21 54.61 55.39 56.22 56.35 55.62 55.39 55.50 55.40 55.17 55.23 55.66 56.27 52.97 38.05 50.94 68.15 68.53 68.12 63.18 58.57 53.78 52.17 50.12 50.79 50.53 55.47 49.51 54.25 55.08 54.97 55.97 54.65 52.93 55.48 53.15 52.68 51.99 55.09 55.65 56.84 55.87 55.04
52.90 53.66 54.06 53.92 54.03 55.05 55.96 55.85 55.56 55.37 55.19 55.17 55.26 55.56 51.63 46.12 44.44 51.78 66.10 66.06 65.07 59.86 55.98 53.04 49.37 48.62 46.66 51.27 53.60 51.83 53.67 55.80 56.25 55.39 54.64 54.97 53.31 52.67 52.52 54.68 55.09 55.68 55.74 55.73 54.97
51.83 51.61 52.56 53.40 53.70 54.21 55.07 55.22 55.61 55.79 55.26 55.37 55.45 55.65 48.61 37.09 49.21 52.13 52.61 52.00 56.58 57.84 56.22 53.20 50.49 51.37 46.58 48.61 48.95 52.61 53.88 54.55 55.71 55.00 54.64 52.92 53.43 52.81 54.48 55.56 53.73 54.77 53.99 54.42 54.20
52.91 52.46 51.53 51.81 52.84 53.63 54.24 54.19 53.90 54.64 54.35 54.81 55.72 53.61 46.96 43.17 50.49 52.36 49.30 48.66 50.59 56.42 53.46 56.13 54.62 50.82 48.60 46.61 50.28 50.01 47.18 49.99 51.94 52.85 52.00 53.86 50.05 50.96 54.28 54.12 52.63 51.92 53.26 53.61 54.17
53.94 53.57 52.83 52.00 51.62 52.20 53.01 54.02 53.94 53.63 53.78 54.23 55.41 51.68 43.48 51.35 51.79 48.82 48.49 46.91 49.87 51.86 53.66 55.61 53.67 49.35 47.30 48.20 48.69 45.94 44.37 41.63 48.64 51.04 52.48 50.46 46.23 52.08 53.64 52.77 52.20 52.68 53.00 52.24 52.87
54.02 53.87 53.69 53.10 52.70 51.59 51.98 52.82 52.81 53.30 53.32 53.65 50.54 48.07 40.34 52.73 48.33 49.91 51.03 48.09 49.43 50.36 51.03 54.27 52.57 48.16 47.42 44.19 40.79 42.66 39.63 42.04 45.11 50.49 50.85 49.43 47.37 51.71 53.76 52.53 51.82 52.19 53.04 52.80 52.55
53.36 53.20 53.46 53.69 53.15 52.55 51.97 52.18 51.83 51.89 50.98 52.00 51.60 44.25 46.08 45.62 49.81 50.85 50.22 50.15 48.48 50.33 48.35 49.50 49.63 46.62 43.12 41.12 36.87 39.70 39.18 42.90 43.92 48.76 49.24 47.59 47.49 50.83 53.73 52.76 51.56 51.84 52.20 52.44 52.35
52.46 52.70 53.09 53.48 53.40 52.72 49.60 44.37 42.28 44.79 46.42 43.37 43.68 43.19 48.25 50.44 53.64 51.72 52.42 48.73 49.04 46.86 42.50 46.10 43.35 40.10 45.18 45.85 45.37 45.20 42.83 42.38 46.29 49.64 48.49 47.68 48.58 50.76 52.30 50.75 50.36 50.70 51.69 52.30 51.77
52.35 52.20 52.34 52.93 53.20 52.65 47.11 41.08 42.01 43.95 37.70 45.73 47.33 46.85 48.80 50.18 46.23 49.84 53.10 46.66 44.83 40.76 44.26 41.76 39.01 44.71 46.28 45.59 44.09 43.45 42.45 42.86 46.64 49.16 47.16 47.32 48.08 50.79 52.03 51.69 51.96 52.42 51.41 50.76 52.07
52.62 52.62 52.54 52.75 52.84 46.86 42.78 44.15 48.54 46.50 38.84 42.44 45.99 46.38 46.86 48.95 45.38 46.55 50.90 48.20 43.78 40.93 41.86 39.76 43.04 46.20 44.50 45.12 42.87 42.57 42.06 43.59 43.45 46.89 48.01 46.81 45.43 48.49 51.91 53.15 53.09 52.95 52.30 52.64 53.06
52.46 52.44 52.40 52.63 45.94 42.53 40.88 47.54 47.36 49.19 33.25 37.51 42.50 45.98 48.03 48.26 44.80 51.01 51.88 49.39 45.01 40.50 42.02 41.19 45.16 45.28 44.11 42.30 45.03 41.10 46.69 46.73 46.13 43.55 38.26 46.98 37.36 43.87 48.09 48.83 50.22 50.96 49.98 51.48 52.79
52.03 51.79 52.23 52.00 44.01 41.37 42.54 44.69 46.33 44.65 21.09 40.23 41.52 50.70 48.35 44.73 48.03 48.01 52.69 49.01 43.96 42.94 41.70 39.39 42.25 42.15 41.26 42.16 45.03 44.11 47.79 46.65 46.63 44.16 40.07 43.39 37.83 41.56 45.92 46.19 48.58 48.92 50.59 50.42 52.53
51.53 51.56 51.88 48.27 46.30 46.37 47.57 46.48 42.72 30.93 22.32 36.45 42.29 40.61 41.57 44.20 45.19 50.36 48.21 49.90 49.21 44.93 44.03 42.51 46.12 44.54 43.42 45.72 45.93 48.83 46.08 45.47 45.05 42.14 35.53 41.97 39.82 42.50 43.18 47.10 48.02 50.24 50.44 51.92 52.15
51.25 51.31 50.52 49.11 42.04 45.52 46.38 40.81 31.22 25.91 38.10 35.43 36.40 38.76 39.48 40.69 42.04 44.85 44.34 42.40 40.11 37.34 37.48 42.18 42.48 45.30 46.28 42.53 45.69 45.93 41.00 33.81 31.11 33.48 33.85 42.79 40.42 43.95 47.21 49.19 49.39 50.76 51.27 51.89 53.43
50.88 50.73 48.79 48.30 46.35 46.56 42.09 35.72 26.17 31.97 32.91 39.01 37.97 37.97 37.28 38.19 39.42 42.91 42.78 40.08 43.29 42.12 38.49 36.46 35.37 43.18 46.37 43.49 41.08 41.92 41.62 35.48 28.63 29.91 34.73 42.86 38.37 43.54 48.86 50.87 51.65 53.34 52.96 53.17 53.55
49.35 43.80 42.75 44.99 47.62 44.23 39.86 28.97 26.35 31.99 36.59 34.82 36.04 33.44 33.19 35.94 36.71 39.09 40.56 41.14 42.99 43.47 36.85 36.41 37.57 46.14 46.51 46.69 44.93 40.60 37.88 42.76 37.29 38.48 35.00 38.24 42.62 48.00 48.73 50.79 51.99 51.69 52.62 52.48 52.40
44.85 40.37 40.84 45.26 46.08 44.85 34.45 29.11 31.57 36.69 37.15 36.91 29.74 33.86 29.23 32.17 33.10 35.23 37.14 43.91 43.57 45.63 44.27 39.82 35.43 44.39 45.73 46.56 45.89 43.12 45.02 37.55 35.33 30.96 29.18 36.33 39.08 40.46 44.35 48.41 50.80 50.70 50.52 52.15 51.71
41.56 35.88 42.47 45.82 47.33 39.44 27.04 29.00 33.41 39.08 39.57 34.68 32.22 31.25 32.40 32.05 33.83 33.09 35.41 42.19 44.50 45.27 45.97 42.81 38.39 40.61 44.20 41.28 40.45 39.38 40.06 40.00 40.65 38.01 32.60 31.32 37.68 44.60 45.69 47.52 50.61 51.22 51.79 51.64 52.09
37.97 30.43 45.52 47.85 36.42 35.89 31.09 33.78 37.97 36.95 39.46 37.22 36.95 35.52 34.28 35.16 32.37 33.86 35.06 39.53 43.64 44.26 41.01 44.02 37.45 35.75 39.51 43.69 46.14 43.88 40.24 41.68 38.76 35.45 37.50 36.82 37.97 47.57 47.49 49.82 52.48 52.19 52.96 52.36 53.15
36.11 34.75 44.11 46.90 30.33 31.63 34.76 34.46 36.69 35.80 36.26 36.14 35.00 37.24 38.18 34.69 30.78 35.53 38.07 43.29 42.99 42.25 40.89 42.09 39.23 32.37 35.66 39.38 43.78 41.62 42.98 43.45 41.69 39.63 37.03 36.92 37.95 48.29 49.73 51.45 52.61 52.20 52.15 52.67 52.52
36.40 29.57 37.52 40.93 38.03 33.80 32.47 32.25 31.60 38.30 36.28 36.60 35.08 36.54 35.03 34.11 37.16 33.31 34.67 39.47 42.24 42.37 46.08 42.34 38.70 37.98 34.68 39.18 42.30 39.97 42.40 44.14 43.66 37.48 37.80 41.84 40.61 45.54 47.51 50.03 50.86 51.95 52.44 52.52 53.00
34.81 31.26 37.59 29.70 31.45 32.11 30.78 32.21 31.07 31.09 36.42 36.62 32.84 33.21 33.67 31.15 33.69 33.25 36.01 37.94 40.88 43.62 40.54 36.85 34.59 40.45 41.60 43.18 43.73 43.35 43.02 43.87 44.30 43.59 41.85 41.98 42.81 46.05 47.24 50.60 51.98 52.72 52.42 52.25 52.30
29.35 34.72 37.90 33.19 33.86 31.67 31.33 30.38 32.23 33.72 35.03 33.23 32.50 36.07 36.14 32.88 34.14 33.45 35.76 36.46 35.69 39.59 36.88 36.75 32.50 39.99 39.32 42.77 42.98 41.45 44.13 44.31 46.05 45.05 43.68 44.83 43.52 48.85 50.44 52.99 52.93 52.97 52.95 52.52 52.88
39.52 39.63 37.91 33.64 30.35 26.36 28.82 34.05 34.82 36.11 37.77 38.21 37.42 35.26 33.60 36.47 40.27 41.63 41.23 41.01 39.28 36.35 34.98 33.57 34.54 34.32 35.68 41.67 41.33 37.46 42.13 44.09 46.52 47.69 45.37 41.79 44.55 48.04 48.49 48.99 52.27 52.57 53.43 53.43 53.76
MSLP
1020.06 1019.69 1019.25 1018.92 1018.73 1018.59 1018.30 1017.97 1017.58 1017.31 1016.98 1016.44 1016.41 1015.77 1015.47 1015.11 1014.18 1013.61 1012.34 1009.80 1009.74 1009.31 1009.88 1010.08 1010.62 1010.42 1010.94 1011.00 1011.01 1011.26 1012.12 1011.82 1010.72 1009.51 1007.72 1006.55 1006.24 1005.16 1004.41 1004.34 1004.50 1004.63 1005.05 1004.82 1005.86
1019.95 1019.60 1019.33 1018.96 1018.79 1018.48 1018.07 1017.93 1017.61 1017.44 1017.15 1016.68 1016.40 1015.96 1015.54 1015.41 1014.70 1012.72 1009.37 1008.66 1008.67 1009.20 1009.77 1009.64 1010.14 1010.30 1010.91 1010.56 1010.71 1010.91 1011.12 1010.17 1008.68 1008.14 1007.54 1006.26 1005.82 1005.25 1004.70 1004.47 1004.72 1004.85 1005.05 1005.04 1006.03
1019.66 1019.43 1019.17 1018.82 1018.34 1018.18 1018.05 1017.69 1017.45 1017.13 1016.82 1016.54 1016.22 1015.88 1015.43 1015.13 1013.87 1009.76 1007.47 1007.65 1007.89 1008.83 1009.16 1009.44 1009.81 1010.24 1010.63 1010.47 1010.04 1009.66 1009.64 1007.80 1007.95 1007.30 1006.73 1006.00 1005.27 1004.82 1004.47 1004.41 1004.45 1004.73 1005.23 1005.81 1006.54
1019.54 1019.04 1018.67 1018.36 1018.07 1017.91 1017.57 1017.48 1017.14 1016.87 1016.63 1016.55 1016.26 1015.93 1015.16 1015.01 1012.49 1008.15 1007.60 1007.51 1007.38 1008.44 1009.05 1009.26 1009.79 1010.42 1010.31 1010.08 1008.44 1009.44 1008.50 1008.06 1007.20 1006.40 1006.19 1005.73 1004.92 1004.57 1004.19 1003.83 1003.71 1004.05 1004.64 1005.55 1006.21
1019.81 1019.30 1018.75 1018.29 1017.84 1017.46 1017.20 1016.99 1016.77 1016.44 1016.49 1016.48 1015.94 1015.39 1014.90 1014.10 1010.69 1007.53 1007.73 1007.58 1007.83 1008.20 1008.35 1008.85 1009.43 1009.76 1009.64 1008.87 1008.93 1008.58 1007.94 1007.08 1006.44 1006.04 1005.60 1005.09 1004.69 1004.05 1003.45 1003.24 1003.55 1003.69 1004.43 1004.89 1005.52
1019.71 1019.30 1018.91 1018.46 1018.04 1017.73 1017.38 1017.15 1017.00 1016.73 1016.30 1015.79 1015.34 1015.20 1015.13 1012.84 1008.87 1008.16 1007.80 1008.04 1008.00 1007.96 1008.13 1008.43 1008.08 1007.83 1008.82 1008.75 1008.85 1007.10 1006.58 1006.45 1006.02 1005.45 1005.13 1004.74 1003.98 1003.64 1002.91 1002.69 1003.46 1003.70 1004.10 1004.37 1004.79
1019.23 1018.78 1018.32 1017.86 1017.44 1016.98 1016.62 1016.28 1015.96 1015.68 1015.40 1015.21 1015.00 1014.78 1013.77 1010.17 1008.40 1007.73 1008.02 1007.63 1007.37 1007.44 1007.46 1007.28 1007.61 1008.21 1008.40 1008.91 1008.26 1007.68 1007.02 1006.15 1005.60 1005.26 1004.56 1004.24 1003.65 1003.05 1002.62 1002.61 1003.02 1003.41 1003.43 1003.92 1004.07
1018.82 1018.44 1017.97 1017.36 1016.73 1016.15 1015.56 1014.99 1014.60 1014.40 1014.36 1014.37 1014.34 1014.04 1011.57 1009.09 1008.01 1008.07 1007.34 1007.00 1007.02 1007.09 1007.09 1006.92 1007.23 1008.09 1008.62 1008.50 1008.07 1007.67 1007.16 1006.28 1005.41 1004.99 1003.93 1004.47 1003.10 1002.58 1002.13 1002.59 1002.56 1002.79 1003.05 1003.49 1003.56
1018.47 1017.96 1017.47 1017.06 1016.62 1015.97 1015.21 1014.37 1013.48 1013.30 1013.41 1013.86 1014.07 1013.54 1010.11 1007.54 1007.01 1005.55 1005.91 1006.22 1005.56 1006.42 1006.61 1006.65 1007.37 1007.88 1008.37 1008.73 1008.65 1008.06 1007.30 1006.15 1005.06 1004.53 1003.98 1003.89 1002.92 1002.12 1001.61 1002.23 1001.96 1002.27 1002.43 1002.76 1002.93
1018.25 1017.68 1017.19 1016.74 1016.27 1015.69 1015.06 1014.04 1011.99 1012.23 1012.48 1013.11 1012.93 1012.93 1008.88 1005.45 1004.32 1003.86 1004.22 1005.36 1005.72 1005.64 1006.34 1006.54 1007.06 1007.34 1007.92 1008.17 1007.48 1007.29 1006.76 1005.90 1004.58 1003.55 1003.84 1003.37 1002.97 1002.14 1001.28 1001.31 1001.34 1001.66 1001.96 1002.29 1002.96
1018.05 1017.52 1016.84 1016.32 1015.92 1015.52 1014.99 1014.08 1012.33 1012.34 1012.22 1009.94 1008.65 1006.94 1004.43 1003.75 1003.61 1003.16 1003.47 1004.59 1005.62 1005.60 1005.43 1005.64 1006.54 1005.73 1006.08 1005.74 1006.26 1006.56 1006.28 1005.56 1003.92 1003.02 1003.83 1003.12 1002.59 1001.60 1000.90 1000.97 1001.00 1001.26 1001.80 1001.96 1002.80
1017.63 1017.10 1016.62 1016.07 1015.50 1015.15 1015.26 1014.93 1013.43 1013.12 1010.92 1008.89 1007.77 1007.11 1005.10 1004.50 1004.10 1002.54 1002.67 1003.72 1004.46 1004.35 1005.05 1005.57 1003.57 1004.52 1004.95 1005.67 1005.95 1006.03 1005.95 1004.93 1003.54 1003.10 1003.84 1003.15 1002.32 1000.98 1000.69 1000.86 1000.39 1000.55 1001.34 1002.19 1003.14
1017.31 1016.68 1016.06 1015.66 1015.20 1015.02 1014.66 1013.75 1012.45 1012.69 1011.37 1006.92 1005.52 1004.46 1005.02 1004.77 1003.80 1001.85 1002.66 1002.52 1002.95 1004.01 1003.55 1002.88 1002.51 1003.88 1004.47 1004.71 1005.09 1004.90 1005.04 1004.22 1003.79 1003.34 1003.55 1003.45 1002.70 1001.57 1000.30 1000.16 1000.27 1000.29 1000.72 1001.76 1002.19
1016.97 1016.42 1015.86 1015.28 1015.08 1014.81 1013.69 1012.08 1012.30 1011.95 1010.65 1005.33 1003.08 1001.20 1002.59 1003.83 1001.82 1001.38 1001.18 1001.74 1002.06 1002.49 1003.18 1002.81 1002.91 1002.81 1003.19 1003.29 1003.79 1003.65 1003.42 1004.03 1003.88 1004.05 1003.75 1003.03 1002.96 1002.10 1000.60 1000.05 999.99 1000.13 1000.38 1001.27 1002.22
1016.55 1016.04 1015.59 1015.43 1015.11 1014.67 1012.78 1012.21 1011.70 1011.21 1009.43 1002.81 1001.03 999.59 999.87 999.89 999.02 998.87 999.41 1000.75 1000.52 1000.83 1001.69 1000.97 1001.45 1002.07 1001.73 1001.71 1002.47 1001.83 1003.29 1003.56 1003.75 1003.82 1004.11 1002.84 1003.48 1001.68 1000.70 1000.09 999.85 1000.10 1000.53 1001.69 1002.36
1016.03 1015.52 1015.13 1014.80 1014.79 1013.60 1013.07 1012.44 1011.86 1011.51 1007.29 1002.64 1001.23 1000.93 1000.70 1000.06 998.65 997.87 998.42 999.23 1000.11 1000.77 1000.28 1000.49 1000.36 1000.54 1000.48 1001.27 1001.59 1001.88 1002.94 1003.37 1003.69 1004.04 1003.95 1003.09 1003.08 1001.08 1000.66 999.81 999.74 999.92 1000.69 1001.64 1002.91
1015.43 1014.93 1014.72 1014.35 1013.78 1013.25 1013.22 1012.57 1011.85 1009.61 1006.04 1003.61 1002.65 1002.02 1000.68 999.96 1000.17 999.33 999.12 999.24 998.95 1000.17 999.53 1000.22 999.76 999.83 999.80 1000.47 1000.90 1001.48 1002.83 1004.06 1004.33 1003.90 1003.31 1002.64 1002.45 1000.47 999.59 999.15 999.34 1000.01 1001.05 1002.05 1002.99
1014.81 1014.27 1013.68 1013.46 1013.26 1013.40 1013.73 1013.34 1011.41 1008.36 1007.16 1004.86 1004.53 1003.27 1002.02 1001.73 1000.92 999.84 999.42 998.54 998.69 998.21 998.72 999.04 998.87 998.20 998.11 998.42 999.61 1000.38 1001.62 1002.44 1003.42 1003.34 1003.14 1002.41 1001.21 999.43 998.49 998.26 998.57 999.57 1000.60 1001.97 1003.21
1014.16 1013.72 1013.49 1012.53 1012.73 1013.52 1013.79 1012.69 1010.52 1009.07 1008.07 1006.77 1005.85 1004.75 1003.80 1003.77 1003.48 1000.98 998.89 998.13 996.80 997.06 997.74 998.23 997.59 996.61 996.74 997.84 998.69 999.19 999.99 1001.09 1002.45 1002.68 1002.68 1001.76 1000.34 999.16 998.68 998.84 999.21 1000.33 1001.17 1002.21 1002.98
1014.49 1014.02 1013.13 1011.91 1012.40 1013.30 1013.66 1012.23 1010.85 1009.76 1008.99 1007.81 1007.14 1006.76 1005.99 1005.10 1004.41 1002.60 1000.46 998.60 998.13 997.66 997.36 997.47 997.52 996.56 996.25 997.23 997.37 997.19 998.59 1000.68 1001.76 1002.35 1002.23 1001.59 1000.45 999.71 999.53 999.60 999.87 1000.52 1001.37 1002.26 1003.04
1014.62 1014.10 1012.50 1011.81 1012.49 1013.22 1013.09 1012.28 1011.03 1010.01 1009.23 1008.88 1008.12 1007.86 1007.26 1006.01 1005.36 1004.60 1002.50 1000.42 999.14 998.40 998.46 998.26 997.85 997.01 996.88 995.43 995.29 997.19 998.06 999.25 1000.12 1001.00 1001.08 1001.21 1000.00 998.86 998.80 999.14 999.76 1000.14 1000.82 1001.72 1002.52
1014.93 1014.32 1012.51 1012.15 1013.08 1013.26 1013.10 1012.19 1011.21 1009.97 1009.46 1009.00 1008.15 1007.81 1007.41 1006.85 1005.70 1005.16 1003.23 1002.24 1002.04 1000.78 999.04 997.35 998.57 997.94 995.58 994.98 995.01 995.99 996.55 997.73 998.73 999.72 999.85 999.97 998.98 997.64 997.58 998.12 998.88 999.82 1000.60 1001.32 1001.96
1015.29 1014.50 1012.73 1012.60 1013.29 1013.43 1013.11 1012.13 1011.12 1010.03 1009.35 1008.58 1008.13 1007.85 1007.42 1006.96 1006.44 1005.16 1004.01 1002.27 1002.39 1002.15 1001.14 999.64 998.20 998.27 996.22 995.41 994.91 994.71 995.04 995.87 997.23 998.19 998.60 998.97 998.01 997.04 997.84 997.83 998.45 999.34 1000.25 1001.05 1001.88
1015.77 1015.05 1013.90 1013.45 1013.50 1013.50 1012.83 1011.79 1010.92 1009.81 1008.95 1008.29 1007.85 1007.65 1007.14 1006.47 1005.64 1004.91 1004.44 1003.43 1003.15 1003.00 1002.41 1001.15 998.91 996.74 994.90 993.23 993.23 993.57 994.13 995.04 995.98 996.90 997.24 996.91 997.26 997.24 997.67 998.34 998.73 999.24 999.78 1000.47 1001.35
1015.97 1015.35 1014.48 1014.07 1013.63 1013.34 1012.77 1011.77 1010.98 1010.06 1008.86 1008.22 1007.47 1007.25 1006.85 1006.22 1005.45 1004.47 1004.39 1003.91 1003.81 1002.85 1002.62 1002.22 999.14 996.67 995.06 993.94 993.18 992.77 992.91 993.64 994.16 994.74 995.41 996.02 996.22 996.42 996.81 997.48 997.82 998.26 999.42 1000.18 1001.00
1016.27 1015.79 1015.06 1014.57 1013.76 1013.23 1012.57 1011.84 1011.10 1010.15 1009.30 1008.25 1007.75 1007.22 1006.75 1006.37 1005.67 1004.72 1004.25 1004.50 1004.77 1003.07 1003.46 1002.62 1000.33 997.10 995.79 994.24 993.34 992.98 992.56 992.19 992.76 993.56 994.02 994.57 995.38 994.89 995.51 996.12 997.22 997.75 998.45 999.34 999.96
1015.84 1015.51 1015.51 1014.50 1013.86 1013.48 1012.61 1011.85 1011.18 1010.53 1009.05 1008.07 1007.67 1007.34 1006.77 1005.66 1004.61 1004.26 1003.68 1004.27 1004.34 1004.14 1004.02 1003.62 1001.61 999.07 995.70 994.03 993.50 992.87 991.57 991.50 991.65 991.90 992.89 993.90 993.94 994.29 995.24 995.81 996.15 996.99 997.51 998.08 998.77
Wind_Speed
14 14 14 14 11 12 13 14 14 15 16 17 17 18 18 18 19 3 12 11 10 12 4 6 5 5 2 5 5 4 2 8 8 6 13 8 4 6 4 3 3 2 9 6 13
14 15 15 15 13 11 12 13 14 14 14 14 16 16 17 17 4 11 15 16 17 11 7 8 6 7 3 4 5 6 6 14 13 10 11 14 4 5 3 7 2 3 3 10 16
15 14 14 14 14 13 12 13 14 14 14 14 15 16 16 14 5 11 7 23 21 15 10 7 3 6 7 4 7 7 11 23 16 16 15 19 14 5 5 7 5 9 8 9 10
16 17 17 16 15 14 13 14 15 15 15 14 13 14 16 3 8 2 1 5 8 13 9 6 5 6 6 9 19 6 13 19 22 21 16 16 18 8 7 10 7 12 16 13 13
16 17 17 17 17 15 14 15 15 15 15 14 13 12 7 4 12 11 11 4 3 12 15 12 8 8 13 12 9 11 21 21 21 20 19 17 17 12 7 10 8 11 14 18 16
16 16 17 17 17 16 15 13 13 13 14 14 12 10 3 13 10 11 17 13 11 5 10 11 11 14 2 11 17 14 14 19 19 21 17 14 18 5 10 8 9 12 16 17 16
15 16 17 18 19 19 17 16 16 14 15 15 13 7 10 18 8 7 6 5 5 14 11 15 16 2 5 14 15 10 12 12 17 17 18 14 17 7 11 7 12 12 14 14 17
15 14 16 17 19 21 22 21 20 20 19 16 13 7 12 9 19 21 28 18 15 9 8 7 8 6 6 5 9 6 5 10 9 14 17 7 21 15 12 9 12 11 9 12 15
17 17 16 18 18 20 21 23 27 25 21 16 9 6 12 8 11 21 19 14 20 12 10 9 6 8 1 13 8 4 14 18 19 12 14 8 18 12 10 9 12 10 10 12 14
18 17 17 18 19 19 19 24 30 19 10 8 8 2 8 10 8 8 12 20 9 3 7 10 7 8 6 5 13 12 8 7 18 17 8 11 13 13 21 17 14 11 9 9 8
18 18 19 18 17 16 12 8 6 4 4 12 13 10 2 18 7 7 8 13 9 4 14 10 10 16 23 26 17 11 6 11 18 17 6 10 15 17 11 6 7 10 11 11 6
22 20 19 18 18 15 5 2 5 2 13 17 24 26 25 7 7 10 13 9 12 19 11 7 28 22 19 12 13 13 13 20 20 18 5 14 22 20 8 8 10 13 8 6 7
20 21 21 18 13 8 4 8 6 7 8 12 20 20 20 14 13 22 8 7 7 12 22 25 12 21 20 15 15 16 18 20 20 14 9 8 11 14 10 8 6 7 8 10 18
19 19 18 18 7 4 6 5 7 6 6 9 10 11 18 9 15 25 13 7 9 23 22 17 19 19 19 19 16 18 21 19 20 11 8 8 7 6 7 7 5 7 6 10 14
19 20 17 10 6 4 7 11 16 1 6 4 4 6 9 28 13 16 23 16 20 15 13 11 21 24 22 26 24 22 14 15 14 13 3 20 2 10 4 6 9 6 8 6 12
19 19 16 7 3 10 11 15 3 2 11 7 9 13 1 19 15 2 17 8 14 13 15 19 8 24 26 17 21 22 6 8 10 6 8 15 6 14 5 8 4 0 7 11 11
20 19 12 4 5 3 8 6 2 7 8 3 15 21 21 9 16 9 8 21 13 15 18 14 21 14 14 22 17 13 9 5 4 6 9 8 5 13 8 8 8 9 8 10 12
20 17 7 7 4 4 3 1 8 6 14 21 20 18 6 21 10 14 9 18 24 15 13 15 13 26 22 21 20 24 14 7 8 4 4 7 8 13 9 8 10 11 13 12 12
17 3 3 5 8 3 2 6 4 6 9 16 17 9 11 22 12 10 24 15 25 24 11 17 19 6 24 18 20 11 19 12 3 2 2 5 6 7 5 6 12 10 12 13 12
5 3 5 4 6 3 2 7 4 13 13 17 8 7 17 16 12 15 6 7 17 23 8 4 6 17 14 17 22 21 5 9 0 8 7 5 3 7 5 8 10 11 11 11 9
3 4 4 3 4 2 3 5 5 14 8 9 11 12 16 17 12 14 9 11 22 8 19 11 4 6 16 20 27 8 19 8 7 7 9 5 10 8 12 13 15 15 14 16 14
2 3 1 2 2 0 1 4 5 10 13 12 8 8 9 13 13 8 11 11 19 20 9 23 5 10 18 4 19 18 10 21 12 8 3 7 10 6 9 17 17 14 14 12 14
4 3 4 4 2 1 3 10 11 14 14 5 6 9 10 11 7 7 11 12 17 19 12 7 17 4 9 1 5 22 20 13 7 5 9 9 9 3 2 15 11 16 12 13 13
3 4 3 3 2 3 5 8 3 8 11 9 9 8 11 11 10 8 13 12 21 19 13 7 5 28 17 12 8 8 19 14 14 7 6 14 5 4 8 10 8 10 14 15 16
1 3 2 4 4 7 4 6 8 8 8 8 5 8 10 8 13 16 17 19 15 6 10 7 9 19 29 18 4 6 18 21 17 14 15 8 11 9 12 15 18 17 13 14 14
1 3 4 5 6 5 5 4 11 8 4 8 5 12 10 8 16 15 11 5 7 6 12 7 8 6 21 29 26 16 9 24 21 10 9 13 7 10 15 15 13 17 18 18 18
3 3 2 6 4 2 3 8 6 10 11 4 10 7 9 14 9 9 7 6 8 14 8 4 5 7 21 20 20 20 23 10 16 19 13 9 9 9 6 11 20 17 20 21 20
Wind_Direction
326 326 329 330 331 331 332 335 336 334 334 336 333 336 337 337 322 300 255 226 200 183 201 127 200 208 203 209 201 119 123 261 246 229 262 295 294 283 273 273 238 228 157 203 142
331 323 316 314 313 317 319 320 322 323 323 327 329 332 333 334 287 255 240 228 215 162 208 188 199 176 233 227 213 165 154 239 235 258 269 278 253 252 298 313 359 54 24 123 134
328 323 320 313 307 307 303 306 312 317 321 325 327 328 329 329 332 253 264 229 229 188 210 216 231 154 220 150 222 203 212 241 266 259 260 273 284 259 288 311 203 191 167 139 149
327 324 322 319 316 305 299 294 300 305 310 316 321 325 322 260 234 259 63 310 246 186 193 194 204 206 219 208 239 267 250 254 259 264 267 264 273 252 244 245 246 184 166 162 174
325 328 323 318 318 313 302 292 292 295 298 301 313 329 354 216 231 254 283 18 70 164 199 201 176 204 217 234 261 245 250 253 257 264 267 271 258 238 246 260 207 179 166 179 183
324 318 317 320 313 306 298 293 276 273 282 293 302 320 191 238 259 255 266 274 254 172 205 189 215 212 318 226 237 248 242 255 264 266 271 269 269 228 259 259 198 164 190 189 188
317 318 316 313 313 314 307 299 294 286 288 288 293 282 244 239 246 249 308 228 238 220 224 214 220 185 194 255 271 254 272 278 268 267 269 288 274 235 244 219 215 191 203 197 205
312 306 307 312 312 312 313 309 299 293 290 286 281 269 254 247 237 256 262 273 249 242 246 229 194 218 204 287 300 299 289 265 260 269 266 204 270 271 254 216 224 224 222 209 212
325 317 303 307 310 311 307 302 296 286 278 276 264 205 269 274 217 231 218 217 241 225 231 240 158 192 220 226 270 225 255 263 271 253 266 218 269 267 263 218 223 226 236 213 223
323 319 316 303 307 312 308 301 286 280 262 225 233 270 255 232 233 231 193 215 218 189 209 209 190 191 205 167 218 224 240 244 254 251 251 269 270 275 273 231 220 228 240 222 208
322 319 314 313 303 310 328 339 5 89 271 205 197 213 290 211 319 220 159 167 181 216 204 188 196 210 213 218 228 243 250 252 257 262 249 253 263 259 266 249 232 242 247 234 181
323 320 318 311 306 302 311 245 226 250 292 254 257 237 266 318 304 277 143 149 180 199 173 201 220 212 226 220 220 224 247 255 271 272 267 280 273 254 244 228 222 224 249 199 151
318 316 316 316 309 313 213 238 246 296 264 269 231 230 222 238 235 260 207 189 167 192 201 207 208 208 208 218 214 223 227 244 251 275 267 273 280 271 274 236 275 255 239 173 166
313 312 310 319 320 287 256 273 314 258 285 270 210 237 191 216 255 217 210 203 207 198 208 233 214 206 212 219 213 233 223 237 248 258 257 156 268 291 247 239 232 269 191 166 170
310 310 307 299 285 297 271 324 319 104 298 226 216 186 176 188 128 206 200 194 219 173 176 205 186 214 221 215 215 237 221 237 251 245 236 277 208 260 285 280 281 232 178 174 163
313 309 308 282 232 248 292 296 306 128 248 296 62 358 149 213 232 89 179 175 193 228 215 210 194 208 222 226 214 236 250 251 261 239 241 249 176 277 224 219 246 118 174 149 145
311 305 297 249 248 300 333 334 213 207 317 49 353 341 323 183 230 258 189 187 183 191 214 210 216 225 197 212 224 206 191 245 271 208 222 224 224 251 252 235 202 168 157 146 147
308 295 249 225 234 272 334 67 223 246 252 309 350 338 34 17 337 221 253 197 209 195 178 204 215 207 208 203 206 221 198 190 197 198 199 223 213 249 220 257 183 155 147 145 150
316 284 258 238 210 137 245 210 209 355 323 338 350 355 353 353 339 331 220 220 201 198 166 195 227 230 202 205 185 204 218 201 159 225 82 216 269 353 117 102 123 140 139 157 156
322 317 278 250 140 100 113 236 300 327 316 332 349 354 331 336 323 356 301 278 230 212 215 224 196 231 216 196 224 218 155 176 241 201 224 276 214 223 168 174 152 148 165 160 158
337 354 278 357 93 107 193 230 259 277 329 330 314 315 311 321 309 331 280 26 22 247 211 249 72 312 204 203 202 177 217 222 175 176 188 205 248 209 194 178 169 177 172 168 165
340 328 210 16 95 292 286 240 312 268 310 293 285 278 297 336 302 294 261 318 359 346 272 201 145 241 243 293 206 209 183 209 219 218 206 168 248 251 212 167 169 172 173 168 165
317 280 330 102 202 122 310 278 260 279 277 255 260 279 286 294 279 303 283 342 332 348 352 319 214 266 326 179 235 201 206 201 177 116 195 178 241 230 66 170 171 153 161 165 159
339 328 322 56 145 177 248 266 267 293 295 268 287 287 279 292 256 253 275 305 331 322 346 317 248 209 215 222 173 191 205 188 185 185 169 206 169 158 158 170 152 165 164 164 168
331 284 332 316 313 303 276 288 294 303 252 273 277 264 253 280 289 253 259 297 328 292 2 3 252 210 220 243 246 205 206 198 197 192 190 189 177 191 177 174 178 174 163 159 170
124 336 342 286 288 306 305 313 317 309 301 297 298 329 320 250 261 282 258 268 283 301 349 346 292 265 217 229 237 250 262 206 207 190 142 161 207 186 186 181 164 175 169 175 179
327 330 252 274 292 15 251 333 290 301 289 269 309 318 294 291 291 289 186 196 235 278 303 289 330 335 219 214 233 240 238 224 202 192 147 168 196 156 176 165 178 177 178 181 183